Time,TemperatureF,DewpointF,PressureIn,WindDirection,WindDirectionDegrees,WindSpeedMPH,WindSpeedGustMPH,Humidity,HourlyPrecipIn,Conditions,Clouds,dailyrainin,SoftwareType,DateUTC
2013-05-30 00:04:00,67.7,59.1,30.30,North,355,2.0,3.0,74,0.00,,,0.00,WeatherCatV1.15B25,2013-05-30 04:04:00,
2013-05-30 00:09:00,67.6,59.0,30.30,North,355,0.0,3.0,74,0.00,,,0.00,WeatherCatV1.15B25,2013-05-30 04:09:00,
2013-05-30 00:14:00,67.5,59.3,30.30,North,0,1.0,2.0,75,0.00,,,0.00,WeatherCatV1.15B25,2013-05-30 04:14:00,
2013-05-30 00:19:00,67.4,59.2,30.30,WNW,290,2.0,4.0,75,0.00,,,0.00,WeatherCatV1.15B25,2013-05-30 04:19:00,
2013-05-30 00:24:00,67.2,59.0,30.30,WNW,301,2.0,3.0,75,0.00,,,0.00,WeatherCatV1.15B25,2013-05-30 04:24:00,
2013-05-30 00:29:00,67.1,59.3,30.30,NNE,26,0.0,0.0,76,0.00,,,0.00,WeatherCatV1.15B25,2013-05-30 04:29:00,
2013-05-30 00:34:00,67.0,59.2,30.29,North,355,1.0,2.0,76,0.00,,,0.00,WeatherCatV1.15B25,2013-05-30 04:34:00,
2013-05-30 00:39:00,66.9,59.1,30.29,WNW,287,0.0,2.0,76,0.00,,,0.00,WeatherCatV1.15B25,2013-05-30 04:39:00,
2013-05-30 00:44:00,66.8,59.3,30.29,WNW,300,0.0,0.0,77,0.00,,,0.00,WeatherCatV1.15B25,2013-05-30 04:44:00,
2013-05-30 00:49:00,66.7,59.3,30.29,ENE,57,0.0,3.0,77,0.00,,,0.00,WeatherCatV1.15B25,2013-05-30 04:49:00,
2013-05-30 01:14:00,66.3,59.2,30.29,NW,310,0.0,2.0,78,0.00,,,0.00,WeatherCatV1.15B25,2013-05-30 05:14:00,
2013-05-30 01:19:00,66.2,59.1,30.29,NNW,339,2.0,2.0,78,0.00,,,0.00,WeatherCatV1.15B25,2013-05-30 05:19:00,
2013-05-30 01:24:00,66.2,59.1,30.29,NE,35,1.0,2.0,78,0.00,,,0.00,WeatherCatV1.15B25,2013-05-30 05:24:00,
2013-05-30 01:29:00,66.2,59.1,30.29,ESE,123,0.0,1.0,78,0.00,,,0.00,WeatherCatV1.15B25,2013-05-30 05:29:00,
2013-05-30 01:34:00,66.2,59.1,30.29,East,93,0.0,2.0,78,0.00,,,0.00,WeatherCatV1.15B25,2013-05-30 05:34:00,
2013-05-30 01:39:00,66.2,59.1,30.29,North,0,0.0,1.0,78,0.00,,,0.00,WeatherCatV1.15B25,2013-05-30 05:39:00,
2013-05-30 01:44:00,66.2,59.5,30.29,North,355,1.0,1.0,79,0.00,,,0.00,WeatherCatV1.15B25,2013-05-30 05:44:00,
2013-05-30 01:49:00,66.1,59.0,30.29,North,5,2.0,3.0,78,0.00,,,0.00,WeatherCatV1.15B25,2013-05-30 05:49:00,
2013-05-30 01:54:00,66.1,59.0,30.28,North,0,0.0,1.0,78,0.00,,,0.00,WeatherCatV1.15B25,2013-05-30 05:54:00,
2013-05-30 01:59:00,66.1,59.4,30.28,WSW,252,1.0,2.0,79,0.00,,,0.00,WeatherCatV1.15B25,2013-05-30 05:59:00,
2013-05-30 02:04:00,65.9,59.2,30.28,West,270,0.0,1.0,79,0.00,,,0.00,WeatherCatV1.15B25,2013-05-30 06:04:00,
2013-05-30 02:09:00,65.8,59.1,30.28,WNW,284,0.0,2.0,79,0.00,,,0.00,WeatherCatV1.15B25,2013-05-30 06:09:00,
2013-05-30 02:14:00,65.5,59.2,30.28,WNW,298,0.0,0.0,80,0.00,,,0.00,WeatherCatV1.15B25,2013-05-30 06:14:00,
2013-05-30 02:19:00,65.2,59.2,30.28,WNW,298,0.0,0.0,81,0.00,,,0.00,WeatherCatV1.15B25,2013-05-30 06:19:00,
2013-05-30 02:24:00,64.8,59.2,30.27,WNW,298,0.0,0.0,82,0.00,,,0.00,WeatherCatV1.15B25,2013-05-30 06:24:00,
2013-05-30 02:29:00,64.4,58.8,30.27,WNW,298,0.0,0.0,82,0.00,,,0.00,WeatherCatV1.15B25,2013-05-30 06:29:00,
2013-05-30 02:34:00,64.2,58.9,30.27,WNW,298,0.0,1.0,83,0.00,,,0.00,WeatherCatV1.15B25,2013-05-30 06:34:00,
2013-05-30 02:39:00,63.9,58.6,30.27,WSW,254,0.0,1.0,83,0.00,,,0.00,WeatherCatV1.15B25,2013-05-30 06:39:00,
2013-05-30 02:44:00,63.7,58.8,30.27,WSW,254,0.0,0.0,84,0.00,,,0.00,WeatherCatV1.15B25,2013-05-30 06:44:00,
2013-05-30 02:54:00,63.4,58.8,30.27,WSW,254,0.0,0.0,85,0.00,,,0.00,WeatherCatV1.15B25,2013-05-30 06:54:00,
2013-05-30 02:59:00,63.2,58.6,30.27,WSW,254,0.0,0.0,85,0.00,,,0.00,WeatherCatV1.15B25,2013-05-30 06:59:00,
2013-05-30 03:04:00,63.1,58.5,30.27,WSW,254,0.0,0.0,85,0.00,,,0.00,WeatherCatV1.15B25,2013-05-30 07:04:00,
2013-05-30 03:09:00,63.0,58.4,30.27,WSW,254,0.0,0.0,85,0.00,,,0.00,WeatherCatV1.15B25,2013-05-30 07:09:00,
2013-05-30 03:14:00,62.9,58.6,30.27,WSW,254,0.0,0.0,86,0.00,,,0.00,WeatherCatV1.15B25,2013-05-30 07:14:00,
2013-05-30 03:19:00,62.8,58.5,30.27,WSW,254,0.0,0.0,86,0.00,,,0.00,WeatherCatV1.15B25,2013-05-30 07:19:00,
2013-05-30 03:24:00,62.7,58.4,30.27,WNW,286,0.0,1.0,86,0.00,,,0.00,WeatherCatV1.15B25,2013-05-30 07:24:00,
2013-05-30 03:29:00,62.7,58.4,30.27,WNW,286,0.0,0.0,86,0.00,,,0.00,WeatherCatV1.15B25,2013-05-30 07:29:00,
2013-05-30 03:34:00,62.7,58.4,30.27,WNW,286,0.0,0.0,86,0.00,,,0.00,WeatherCatV1.15B25,2013-05-30 07:34:00,
2013-05-30 03:39:00,62.7,58.4,30.27,WNW,287,0.0,0.0,86,0.00,,,0.00,WeatherCatV1.15B25,2013-05-30 07:39:00,
2013-05-30 03:44:00,62.6,58.3,30.28,WNW,286,0.0,0.0,86,0.00,,,0.00,WeatherCatV1.15B25,2013-05-30 07:44:00,
2013-05-30 03:49:00,62.4,58.2,30.28,WNW,286,0.0,0.0,86,0.00,,,0.00,WeatherCatV1.15B25,2013-05-30 07:49:00,
2013-05-30 03:54:00,62.3,58.4,30.28,WNW,286,0.0,0.0,87,0.00,,,0.00,WeatherCatV1.15B25,2013-05-30 07:54:00,
2013-05-30 03:59:00,62.3,58.4,30.28,WNW,286,0.0,0.0,87,0.00,,,0.00,WeatherCatV1.15B25,2013-05-30 07:59:00,
2013-05-30 04:04:00,62.3,58.4,30.28,WNW,286,0.0,0.0,87,0.00,,,0.00,WeatherCatV1.15B25,2013-05-30 08:04:00,
2013-05-30 04:09:00,62.3,58.4,30.29,WNW,286,0.0,0.0,87,0.00,,,0.00,WeatherCatV1.15B25,2013-05-30 08:09:00,
2013-05-30 04:14:00,62.2,58.3,30.29,WNW,286,0.0,0.0,87,0.00,,,0.00,WeatherCatV1.15B25,2013-05-30 08:14:00,
2013-05-30 04:19:00,62.0,58.1,30.29,WNW,286,0.0,0.0,87,0.00,,,0.00,WeatherCatV1.15B25,2013-05-30 08:19:00,
2013-05-30 04:24:00,61.8,57.9,30.29,NW,306,0.0,0.0,87,0.00,,,0.00,WeatherCatV1.15B25,2013-05-30 08:24:00,
2013-05-30 04:29:00,61.5,57.9,30.30,NW,306,0.0,0.0,88,0.00,,,0.00,WeatherCatV1.15B25,2013-05-30 08:29:00,
2013-05-30 04:34:00,61.3,57.7,30.30,NW,306,0.0,0.0,88,0.00,,,0.00,WeatherCatV1.15B25,2013-05-30 08:34:00,
2013-05-30 04:39:00,61.2,57.9,30.30,NW,306,0.0,0.0,89,0.00,,,0.00,WeatherCatV1.15B25,2013-05-30 08:39:00,
2013-05-30 04:44:00,61.1,57.8,30.30,NW,306,0.0,0.0,89,0.00,,,0.00,WeatherCatV1.15B25,2013-05-30 08:44:00,
2013-05-30 04:49:00,60.9,57.6,30.30,NW,306,0.0,0.0,89,0.00,,,0.00,WeatherCatV1.15B25,2013-05-30 08:49:00,
2013-05-30 04:54:00,60.7,57.4,30.30,NW,306,0.0,0.0,89,0.00,,,0.00,WeatherCatV1.15B25,2013-05-30 08:54:00,
2013-05-30 04:59:00,60.5,57.5,30.30,West,271,1.0,2.0,90,0.00,,,0.00,WeatherCatV1.15B25,2013-05-30 08:59:00,
2013-05-30 05:04:00,60.5,57.9,30.30,NW,315,0.0,2.0,91,0.00,,,0.00,WeatherCatV1.15B25,2013-05-30 09:04:00,
2013-05-30 05:09:00,60.6,58.0,30.30,NW,304,0.0,0.0,91,0.00,,,0.00,WeatherCatV1.15B25,2013-05-30 09:09:00,
2013-05-30 05:14:00,60.6,58.0,30.30,NW,304,0.0,0.0,91,0.00,,,0.00,WeatherCatV1.15B25,2013-05-30 09:14:00,
2013-05-30 05:19:00,60.7,58.1,30.30,NW,304,0.0,0.0,91,0.00,,,0.00,WeatherCatV1.15B25,2013-05-30 09:19:00,
2013-05-30 05:24:00,60.6,58.0,30.30,NW,304,0.0,0.0,91,0.00,,,0.00,WeatherCatV1.15B25,2013-05-30 09:24:00,
2013-05-30 05:29:00,60.5,57.9,30.31,NW,304,0.0,1.0,91,0.00,,,0.00,WeatherCatV1.15B25,2013-05-30 09:29:00,
2013-05-30 05:34:00,60.5,58.2,30.31,NW,313,0.0,0.0,92,0.00,,,0.00,WeatherCatV1.15B25,2013-05-30 09:34:00,
2013-05-30 05:39:00,60.6,58.3,30.31,NE,40,0.0,2.0,92,0.00,,,0.00,WeatherCatV1.15B25,2013-05-30 09:39:00,
2013-05-30 05:44:00,60.9,58.6,30.31,NNE,33,0.0,0.0,92,0.00,,,0.00,WeatherCatV1.15B25,2013-05-30 09:44:00,
2013-05-30 05:49:00,61.1,58.8,30.31,NNE,33,0.0,0.0,92,0.00,,,0.00,WeatherCatV1.15B25,2013-05-30 09:49:00,
2013-05-30 05:54:00,61.3,58.6,30.31,WNW,300,0.0,1.0,91,0.00,,,0.00,WeatherCatV1.15B25,2013-05-30 09:54:00,
2013-05-30 05:59:00,61.5,58.8,30.32,NW,314,0.0,0.0,91,0.00,,,0.00,WeatherCatV1.15B25,2013-05-30 09:59:00,
2013-05-30 06:04:00,61.6,58.9,30.32,NNW,340,0.0,1.0,91,0.00,,,0.00,WeatherCatV1.15B25,2013-05-30 10:04:00,
2013-05-30 06:09:00,61.7,59.0,30.32,NNE,26,0.0,0.0,91,0.00,,,0.00,WeatherCatV1.15B25,2013-05-30 10:09:00,
2013-05-30 06:14:00,61.8,59.1,30.32,NNE,26,0.0,1.0,91,0.00,,,0.00,WeatherCatV1.15B25,2013-05-30 10:14:00,
2013-05-30 06:19:00,62.0,59.3,30.33,NNE,26,0.0,0.0,91,0.00,,,0.00,WeatherCatV1.15B25,2013-05-30 10:19:00,
2013-05-30 06:24:00,62.0,59.3,30.33,NNE,26,0.0,0.0,91,0.00,,,0.00,WeatherCatV1.15B25,2013-05-30 10:24:00,
2013-05-30 06:29:00,62.2,59.2,30.32,West,271,0.0,2.0,90,0.00,,,0.00,WeatherCatV1.15B25,2013-05-30 10:29:00,
2013-05-30 06:34:00,62.3,59.3,30.33,NNW,333,0.0,1.0,90,0.00,,,0.00,WeatherCatV1.15B25,2013-05-30 10:34:00,
2013-05-30 06:39:00,62.4,59.4,30.33,WNW,292,0.0,0.0,90,0.00,,,0.00,WeatherCatV1.15B25,2013-05-30 10:39:00,
2013-05-30 06:44:00,62.6,59.6,30.33,West,272,0.0,2.0,90,0.00,,,0.00,WeatherCatV1.15B25,2013-05-30 10:44:00,
2013-05-30 06:49:00,62.7,59.7,30.33,WSW,250,1.0,6.0,90,0.00,,,0.00,WeatherCatV1.15B25,2013-05-30 10:49:00,
2013-05-30 06:54:00,62.9,59.6,30.33,West,262,0.0,1.0,89,0.00,,,0.00,WeatherCatV1.15B25,2013-05-30 10:54:00,
2013-05-30 06:59:00,63.0,59.7,30.33,WSW,257,0.0,1.0,89,0.00,,,0.00,WeatherCatV1.15B25,2013-05-30 10:59:00,
2013-05-30 07:04:00,63.0,59.7,30.33,WNW,300,0.0,2.0,89,0.00,,,0.00,WeatherCatV1.15B25,2013-05-30 11:04:00,
2013-05-30 07:09:00,63.1,59.8,30.33,WNW,300,0.0,0.0,89,0.00,,,0.00,WeatherCatV1.15B25,2013-05-30 11:09:00,
2013-05-30 07:14:00,63.1,59.8,30.33,West,267,0.0,1.0,89,0.00,,,0.00,WeatherCatV1.15B25,2013-05-30 11:14:00,
2013-05-30 07:19:00,63.2,59.9,30.33,NE,38,2.0,2.0,89,0.00,,,0.00,WeatherCatV1.15B25,2013-05-30 11:19:00,
2013-05-30 07:24:00,63.2,59.9,30.33,NW,322,0.0,1.0,89,0.00,,,0.00,WeatherCatV1.15B25,2013-05-30 11:24:00,
2013-05-30 07:29:00,63.3,60.0,30.33,NW,322,0.0,0.0,89,0.00,,,0.00,WeatherCatV1.15B25,2013-05-30 11:29:00,
2013-05-30 07:34:00,63.3,60.0,30.33,NW,322,0.0,0.0,89,0.00,,,0.00,WeatherCatV1.15B25,2013-05-30 11:34:00,
2013-05-30 07:39:00,63.4,60.1,30.34,NW,322,0.0,0.0,89,0.00,,,0.00,WeatherCatV1.15B25,2013-05-30 11:39:00,
2013-05-30 07:44:00,63.5,60.2,30.34,NW,322,1.0,1.0,89,0.00,,,0.00,WeatherCatV1.15B25,2013-05-30 11:44:00,
2013-05-30 07:49:00,63.6,60.0,30.34,NW,322,0.0,0.0,88,0.00,,,0.00,WeatherCatV1.15B25,2013-05-30 11:49:00,
2013-05-30 07:54:00,63.8,60.2,30.34,WNW,297,1.0,1.0,88,0.00,,,0.00,WeatherCatV1.15B25,2013-05-30 11:54:00,
2013-05-30 07:59:00,64.0,60.0,30.34,SW,227,1.0,1.0,87,0.00,,,0.00,WeatherCatV1.15B25,2013-05-30 11:59:00,
2013-05-30 08:04:00,64.3,60.3,30.34,WSW,249,0.0,2.0,87,0.00,,,0.00,WeatherCatV1.15B25,2013-05-30 12:04:00,
2013-05-30 08:09:00,64.5,60.5,30.34,WSW,237,0.0,2.0,87,0.00,,,0.00,WeatherCatV1.15B25,2013-05-30 12:09:00,
2013-05-30 08:14:00,64.8,60.5,30.34,SW,236,1.0,1.0,86,0.00,,,0.00,WeatherCatV1.15B25,2013-05-30 12:14:00,
2013-05-30 08:19:00,65.1,60.5,30.34,SW,231,1.0,3.0,85,0.00,,,0.00,WeatherCatV1.15B25,2013-05-30 12:19:00,
2013-05-30 08:24:00,65.2,60.6,30.34,WSW,248,0.0,2.0,85,0.00,,,0.00,WeatherCatV1.15B25,2013-05-30 12:24:00,
2013-05-30 08:29:00,65.3,60.7,30.34,SW,216,1.0,3.0,85,0.00,,,0.00,WeatherCatV1.15B25,2013-05-30 12:29:00,
2013-05-30 08:34:00,65.4,60.8,30.34,SW,216,0.0,1.0,85,0.00,,,0.00,WeatherCatV1.15B25,2013-05-30 12:34:00,
2013-05-30 08:39:00,65.6,61.0,30.34,SW,217,0.0,0.0,85,0.00,,,0.00,WeatherCatV1.15B25,2013-05-30 12:39:00,
2013-05-30 08:44:00,65.9,60.9,30.34,SW,232,2.0,3.0,84,0.00,,,0.00,WeatherCatV1.15B25,2013-05-30 12:44:00,
2013-05-30 08:49:00,66.2,61.2,30.34,SW,224,4.0,4.0,84,0.00,,,0.00,WeatherCatV1.15B25,2013-05-30 12:49:00,
2013-05-30 08:54:00,66.6,61.3,30.35,SSW,202,0.0,2.0,83,0.00,,,0.00,WeatherCatV1.15B25,2013-05-30 12:54:00,
2013-05-30 08:59:00,67.0,61.3,30.35,SW,223,0.0,3.0,82,0.00,,,0.00,WeatherCatV1.15B25,2013-05-30 12:59:00,
2013-05-30 09:04:00,67.2,61.2,30.35,WSW,242,0.0,2.0,81,0.00,,,0.00,WeatherCatV1.15B25,2013-05-30 13:04:00,
2013-05-30 09:09:00,67.6,61.6,30.35,SW,226,1.0,3.0,81,0.00,,,0.00,WeatherCatV1.15B25,2013-05-30 13:09:00,
2013-05-30 09:14:00,67.9,61.8,30.35,WSW,247,0.0,1.0,81,0.00,,,0.00,WeatherCatV1.15B25,2013-05-30 13:14:00,
2013-05-30 09:19:00,68.0,61.6,30.35,WSW,256,0.0,1.0,80,0.00,,,0.00,WeatherCatV1.15B25,2013-05-30 13:19:00,
2013-05-30 09:24:00,68.1,61.3,30.35,WSW,246,0.0,0.0,79,0.00,,,0.00,WeatherCatV1.15B25,2013-05-30 13:24:00,
2013-05-30 09:29:00,68.3,60.8,30.36,WSW,238,3.0,7.0,77,0.00,,,0.00,WeatherCatV1.15B25,2013-05-30 13:29:00,
2013-05-30 09:34:00,68.2,60.7,30.36,WSW,239,3.0,4.0,77,0.00,,,0.00,WeatherCatV1.15B25,2013-05-30 13:34:00,
2013-05-30 09:39:00,68.1,60.6,30.36,SW,216,0.0,3.0,77,0.00,,,0.00,WeatherCatV1.15B25,2013-05-30 13:39:00,
2013-05-30 09:49:00,68.5,61.4,30.36,ENE,69,0.0,2.0,78,0.00,,,0.00,WeatherCatV1.15B25,2013-05-30 13:49:00,
2013-05-30 09:54:00,68.9,61.0,30.36,East,84,0.0,2.0,76,0.00,,,0.00,WeatherCatV1.15B25,2013-05-30 13:54:00,
2013-05-30 09:59:00,69.2,60.5,30.36,West,261,2.0,5.0,74,0.00,,,0.00,WeatherCatV1.15B25,2013-05-30 13:59:00,
2013-05-30 10:04:00,69.3,61.0,30.36,WSW,251,3.0,4.0,75,0.00,,,0.00,WeatherCatV1.15B25,2013-05-30 14:04:00,
2013-05-30 10:09:00,69.7,60.6,30.36,SE,132,0.0,1.0,73,0.00,,,0.00,WeatherCatV1.15B25,2013-05-30 14:09:00,
2013-05-30 10:14:00,70.4,60.9,30.36,WSW,244,0.0,2.0,72,0.00,,,0.00,WeatherCatV1.15B25,2013-05-30 14:14:00,
2013-05-30 10:19:00,70.9,61.4,30.36,SSW,196,0.0,2.0,72,0.00,,,0.00,WeatherCatV1.15B25,2013-05-30 14:19:00,
2013-05-30 10:24:00,71.0,60.7,30.36,SW,232,2.0,8.0,70,0.00,,,0.00,WeatherCatV1.15B25,2013-05-30 14:24:00,
2013-05-30 10:29:00,71.2,61.3,30.35,WSW,240,1.0,3.0,71,0.00,,,0.00,WeatherCatV1.15B25,2013-05-30 14:29:00,
2013-05-30 10:30:00,71.2,61.3,30.36,SW,231,2.0,2.0,71,0.00,,,0.00,WeatherCatV1.15B25,2013-05-30 14:30:00,
2013-05-30 10:34:00,71.6,61.7,30.35,WNW,293,1.0,2.0,71,0.00,,,0.00,WeatherCatV1.15B25,2013-05-30 14:34:00,
2013-05-30 10:35:00,71.7,61.4,30.35,WSW,240,1.0,3.0,70,0.00,,,0.00,WeatherCatV1.15B25,2013-05-30 14:35:00,
2013-05-30 10:40:00,72.1,61.8,30.35,SW,234,1.0,2.0,70,0.00,,,0.00,WeatherCatV1.15B25,2013-05-30 14:40:00,
2013-05-30 10:45:00,72.4,61.6,30.35,SSW,213,1.0,0.0,69,0.00,,,0.00,WeatherCatV1.15B25,2013-05-30 14:45:00,
2013-05-30 10:50:00,72.7,61.5,30.35,SW,225,1.0,2.0,68,0.00,,,0.00,WeatherCatV1.15B25,2013-05-30 14:50:00,
2013-05-30 10:55:00,72.9,61.3,30.35,WSW,246,1.0,3.0,67,0.00,,,0.00,WeatherCatV1.15B25,2013-05-30 14:55:00,
2013-05-30 11:00:00,72.6,61.0,30.35,WSW,241,2.0,4.0,67,0.00,,,0.00,WeatherCatV1.15B25,2013-05-30 15:00:00,
2013-05-30 11:05:00,72.4,60.8,30.35,South,171,3.0,6.0,67,0.00,,,0.00,WeatherCatV1.15B25,2013-05-30 15:05:00,
2013-05-30 11:10:00,72.8,61.6,30.35,SE,130,2.0,2.0,68,0.00,,,0.00,WeatherCatV1.15B25,2013-05-30 15:10:00,
2013-05-30 11:15:00,73.3,61.2,30.35,East,83,2.0,5.0,66,0.00,,,0.00,WeatherCatV1.15B25,2013-05-30 15:15:00,
2013-05-30 11:20:00,73.6,60.7,30.34,NE,37,2.0,3.0,64,0.00,,,0.00,WeatherCatV1.15B25,2013-05-30 15:20:00,
2013-05-30 11:25:00,73.6,61.1,30.34,NW,305,2.0,5.0,65,0.00,,,0.00,WeatherCatV1.15B25,2013-05-30 15:25:00,
2013-05-30 11:30:00,73.9,61.4,30.34,WSW,252,3.0,4.0,65,0.00,,,0.00,WeatherCatV1.15B25,2013-05-30 15:30:00,
2013-05-30 11:35:00,74.1,61.1,30.34,WSW,247,2.0,6.0,64,0.00,,,0.00,WeatherCatV1.15B25,2013-05-30 15:35:00,
2013-05-30 11:40:00,74.7,61.7,30.34,SE,137,2.0,5.0,64,0.00,,,0.00,WeatherCatV1.15B25,2013-05-30 15:40:00,
2013-05-30 11:45:00,75.1,60.2,30.34,South,173,3.0,11.0,60,0.00,,,0.00,WeatherCatV1.15B25,2013-05-30 15:45:00,
2013-05-30 11:50:00,74.3,60.4,30.34,SW,220,4.0,4.0,62,0.00,,,0.00,WeatherCatV1.15B25,2013-05-30 15:50:00,
2013-05-30 11:55:00,74.4,61.4,30.34,WSW,239,3.0,6.0,64,0.00,,,0.00,WeatherCatV1.15B25,2013-05-30 15:55:00,
2013-05-30 12:00:00,74.5,60.6,30.34,WSW,245,2.0,11.0,62,0.00,,,0.00,WeatherCatV1.15B25,2013-05-30 16:00:00,
2013-05-30 12:05:00,74.5,60.6,30.34,WSW,243,3.0,6.0,62,0.00,,,0.00,WeatherCatV1.15B25,2013-05-30 16:05:00,
2013-05-30 12:10:00,74.9,61.4,30.34,West,266,2.0,2.0,63,0.00,,,0.00,WeatherCatV1.15B25,2013-05-30 16:10:00,
2013-05-30 12:15:00,75.1,61.2,30.34,West,259,1.0,6.0,62,0.00,,,0.00,WeatherCatV1.15B25,2013-05-30 16:15:00,
2013-05-30 12:20:00,75.3,61.4,30.34,WSW,258,2.0,4.0,62,0.00,,,0.00,WeatherCatV1.15B25,2013-05-30 16:20:00,
2013-05-30 12:25:00,75.7,60.3,30.33,SSW,205,2.0,4.0,59,0.00,,,0.00,WeatherCatV1.15B25,2013-05-30 16:25:00,
2013-05-30 12:30:00,76.2,60.8,30.33,SW,221,1.0,4.0,59,0.00,,,0.00,WeatherCatV1.15B25,2013-05-30 16:30:00,
2013-05-30 12:35:00,76.3,59.9,30.33,North,358,2.0,4.0,57,0.00,,,0.00,WeatherCatV1.15B25,2013-05-30 16:35:00,
2013-05-30 12:40:00,77.0,62.0,30.33,North,8,2.0,3.0,60,0.00,,,0.00,WeatherCatV1.15B25,2013-05-30 16:40:00,
2013-05-30 12:45:00,77.7,60.2,30.33,NW,324,2.0,9.0,55,0.00,,,0.00,WeatherCatV1.15B25,2013-05-30 16:45:00,
2013-05-30 12:57:00,77.5,60.5,30.33,West,277,2.0,3.0,56,0.00,,,0.00,WeatherCatV1.15B25,2013-05-30 16:57:00,
2013-05-30 13:03:00,77.8,59.8,30.32,West,267,6.0,8.0,54,0.00,,,0.00,WeatherCatV1.15B25,2013-05-30 17:03:00,
2013-05-30 13:08:00,78.1,60.6,30.32,SW,235,5.0,5.0,55,0.00,,,0.00,WeatherCatV1.15B25,2013-05-30 17:08:00,
2013-05-30 13:13:00,78.3,60.3,30.32,WSW,252,2.0,4.0,54,0.00,,,0.00,WeatherCatV1.15B25,2013-05-30 17:13:00,
2013-05-30 13:18:00,78.6,60.5,30.32,WSW,239,0.0,6.0,54,0.00,,,0.00,WeatherCatV1.15B25,2013-05-30 17:18:00,
2013-05-30 13:23:00,79.1,60.5,30.31,WSW,241,2.0,6.0,53,0.00,,,0.00,WeatherCatV1.15B25,2013-05-30 17:23:00,
2013-05-30 13:28:00,78.8,58.6,30.32,WSW,240,5.0,13.0,50,0.00,,,0.00,WeatherCatV1.15B25,2013-05-30 17:28:00,
2013-05-30 13:33:00,78.3,59.2,30.31,SSE,165,1.0,4.0,52,0.00,,,0.00,WeatherCatV1.15B25,2013-05-30 17:33:00,
2013-05-30 13:38:00,78.9,59.8,30.31,WSW,247,2.0,6.0,52,0.00,,,0.00,WeatherCatV1.15B25,2013-05-30 17:38:00,
2013-05-30 13:43:00,79.2,60.0,30.31,West,260,1.0,2.0,52,0.00,,,0.00,WeatherCatV1.15B25,2013-05-30 17:43:00,
2013-05-30 13:48:00,79.6,59.9,30.30,WSW,246,9.0,13.0,51,0.00,,,0.00,WeatherCatV1.15B25,2013-05-30 17:48:00,
2013-05-30 13:53:00,79.7,59.4,30.31,South,188,2.0,2.0,50,0.00,,,0.00,WeatherCatV1.15B25,2013-05-30 17:53:00,
2013-05-30 13:58:00,80.1,59.8,30.30,SW,235,3.0,4.0,50,0.00,,,0.00,WeatherCatV1.15B25,2013-05-30 17:58:00,
2013-05-30 14:03:00,79.8,58.9,30.30,SW,230,0.0,8.0,49,0.00,,,0.00,WeatherCatV1.15B25,2013-05-30 18:03:00,
2013-05-30 14:08:00,79.6,60.9,30.30,SSW,198,0.0,2.0,53,0.00,,,0.00,WeatherCatV1.15B25,2013-05-30 18:08:00,
2013-05-30 14:13:00,79.7,59.4,30.30,West,274,0.0,8.0,50,0.00,,,0.00,WeatherCatV1.15B25,2013-05-30 18:13:00,
2013-05-30 14:18:00,80.1,60.3,30.30,NNE,33,1.0,3.0,51,0.00,,,0.00,WeatherCatV1.15B25,2013-05-30 18:18:00,
2013-05-30 14:23:00,80.6,59.6,30.30,West,260,4.0,10.0,49,0.00,,,0.00,WeatherCatV1.15B25,2013-05-30 18:23:00,
2013-05-30 14:28:00,80.3,58.8,30.30,WSW,250,2.0,13.0,48,0.00,,,0.00,WeatherCatV1.15B25,2013-05-30 18:28:00,
2013-05-30 14:33:00,80.3,58.8,30.29,West,268,1.0,7.0,48,0.00,,,0.00,WeatherCatV1.15B25,2013-05-30 18:33:00,
2013-05-30 14:38:00,80.4,59.5,30.29,SW,230,0.0,4.0,49,0.00,,,0.00,WeatherCatV1.15B25,2013-05-30 18:38:00,
2013-05-30 14:43:00,80.8,60.4,30.28,SSW,200,2.0,4.0,50,0.00,,,0.00,WeatherCatV1.15B25,2013-05-30 18:43:00,
2013-05-30 14:48:00,81.0,59.4,30.28,WSW,241,4.0,5.0,48,0.00,,,0.00,WeatherCatV1.15B25,2013-05-30 18:48:00,
2013-05-30 14:53:00,80.8,59.8,30.28,WSW,242,1.0,8.0,49,0.00,,,0.00,WeatherCatV1.15B25,2013-05-30 18:53:00,
2013-05-30 14:58:00,80.8,58.7,30.28,WSW,244,10.0,10.0,47,0.00,,,0.00,WeatherCatV1.15B25,2013-05-30 18:58:00,
2013-05-30 15:03:00,80.7,58.6,30.28,SW,217,4.0,8.0,47,0.00,,,0.00,WeatherCatV1.15B25,2013-05-30 19:03:00,
2013-05-30 15:08:00,80.7,59.7,30.28,SW,221,3.0,7.0,49,0.00,,,0.00,WeatherCatV1.15B25,2013-05-30 19:08:00,
2013-05-30 15:13:00,80.8,58.7,30.28,WSW,243,2.0,5.0,47,0.00,,,0.00,WeatherCatV1.15B25,2013-05-30 19:13:00,
2013-05-30 15:18:00,80.8,58.1,30.28,WSW,243,5.0,12.0,46,0.00,,,0.00,WeatherCatV1.15B25,2013-05-30 19:18:00,
2013-05-30 15:23:00,80.3,59.4,30.28,SW,220,7.0,9.0,49,0.00,,,0.00,WeatherCatV1.15B25,2013-05-30 19:23:00,
2013-05-30 15:28:00,80.9,58.2,30.28,SSE,163,2.0,11.0,46,0.00,,,0.00,WeatherCatV1.15B25,2013-05-30 19:28:00,
2013-05-30 15:33:00,81.0,59.4,30.28,West,260,3.0,6.0,48,0.00,,,0.00,WeatherCatV1.15B25,2013-05-30 19:33:00,
2013-05-30 15:38:00,81.2,58.4,30.28,West,261,5.0,11.0,46,0.00,,,0.00,WeatherCatV1.15B25,2013-05-30 19:38:00,
2013-05-30 15:43:00,81.5,58.1,30.28,South,184,1.0,6.0,45,0.00,,,0.00,WeatherCatV1.15B25,2013-05-30 19:43:00,
2013-05-30 15:48:00,81.7,58.9,30.28,NNW,330,0.0,4.0,46,0.00,,,0.00,WeatherCatV1.15B25,2013-05-30 19:48:00,
2013-05-30 15:53:00,82.0,58.5,30.27,SSE,162,0.0,2.0,45,0.00,,,0.00,WeatherCatV1.15B25,2013-05-30 19:53:00,
2013-05-30 15:58:00,82.1,60.4,30.27,WSW,255,2.0,2.0,48,0.00,,,0.00,WeatherCatV1.15B25,2013-05-30 19:58:00,
2013-05-30 16:03:00,82.6,59.1,30.27,SW,229,0.0,5.0,45,0.00,,,0.00,WeatherCatV1.15B25,2013-05-30 20:03:00,
2013-05-30 16:08:00,83.1,60.1,30.27,SW,225,4.0,5.0,46,0.00,,,0.00,WeatherCatV1.15B25,2013-05-30 20:08:00,
2013-05-30 16:13:00,83.0,60.7,30.27,West,277,3.0,7.0,47,0.00,,,0.00,WeatherCatV1.15B25,2013-05-30 20:13:00,
2013-05-30 16:18:00,82.6,61.5,30.26,NNE,19,0.0,1.0,49,0.00,,,0.00,WeatherCatV1.15B25,2013-05-30 20:18:00,
2013-05-30 16:23:00,82.4,60.7,30.26,WSW,254,2.0,9.0,48,0.00,,,0.00,WeatherCatV1.15B25,2013-05-30 20:23:00,
2013-05-30 16:28:00,82.4,60.7,30.26,North,0,2.0,4.0,48,0.00,,,0.00,WeatherCatV1.15B25,2013-05-30 20:28:00,
2013-05-30 16:33:00,82.4,60.7,30.26,West,265,3.0,6.0,48,0.00,,,0.00,WeatherCatV1.15B25,2013-05-30 20:33:00,
2013-05-30 16:38:00,82.0,60.3,30.26,WNW,290,1.0,3.0,48,0.00,,,0.00,WeatherCatV1.15B25,2013-05-30 20:38:00,
2013-05-30 16:43:00,82.0,60.3,30.26,SW,229,4.0,6.0,48,0.00,,,0.00,WeatherCatV1.15B25,2013-05-30 20:43:00,
2013-05-30 16:48:00,81.7,60.1,30.26,NNE,19,4.0,4.0,48,0.00,,,0.00,WeatherCatV1.15B25,2013-05-30 20:48:00,
2013-05-30 16:53:00,81.1,58.9,30.26,WNW,295,3.0,5.0,47,0.00,,,0.00,WeatherCatV1.15B25,2013-05-30 20:53:00,
2013-05-30 16:58:00,81.0,59.4,30.27,WSW,258,2.0,7.0,48,0.00,,,0.00,WeatherCatV1.15B25,2013-05-30 20:58:00,
2013-05-30 17:03:00,80.8,59.2,30.26,West,273,4.0,4.0,48,0.00,,,0.00,WeatherCatV1.15B25,2013-05-30 21:03:00,
2013-05-30 17:08:00,80.9,58.8,30.26,SW,227,7.0,9.0,47,0.00,,,0.00,WeatherCatV1.15B25,2013-05-30 21:08:00,
2013-05-30 17:13:00,80.6,57.9,30.26,NE,39,2.0,5.0,46,0.00,,,0.00,WeatherCatV1.15B25,2013-05-30 21:13:00,
2013-05-30 17:23:00,80.6,59.6,30.26,West,281,2.0,5.0,49,0.00,,,0.00,WeatherCatV1.15B25,2013-05-30 21:23:00,
2013-05-30 17:28:00,80.2,59.3,30.26,North,350,3.0,5.0,49,0.00,,,0.00,WeatherCatV1.15B25,2013-05-30 21:28:00,
2013-05-30 17:33:00,79.8,59.5,30.26,NW,311,1.0,6.0,50,0.00,,,0.00,WeatherCatV1.15B25,2013-05-30 21:33:00,
2013-05-30 17:38:00,79.8,60.0,30.26,WSW,250,7.0,7.0,51,0.00,,,0.00,WeatherCatV1.15B25,2013-05-30 21:38:00,
2013-05-30 17:43:00,79.8,58.9,30.26,WSW,238,3.0,8.0,49,0.00,,,0.00,WeatherCatV1.15B25,2013-05-30 21:43:00,
2013-05-30 17:53:00,79.7,59.9,30.26,West,277,3.0,3.0,51,0.00,,,0.00,WeatherCatV1.15B25,2013-05-30 21:53:00,
2013-05-30 17:58:00,79.1,59.9,30.26,West,259,0.0,3.0,52,0.00,,,0.00,WeatherCatV1.15B25,2013-05-30 21:58:00,
2013-05-30 18:03:00,78.6,58.9,30.26,NNW,343,1.0,3.0,51,0.00,,,0.00,WeatherCatV1.15B25,2013-05-30 22:03:00,
2013-05-30 18:08:00,78.1,59.0,30.26,WSW,248,4.0,4.0,52,0.00,,,0.00,WeatherCatV1.15B25,2013-05-30 22:08:00,
2013-05-30 18:13:00,77.7,59.2,30.26,WSW,244,2.0,5.0,53,0.00,,,0.00,WeatherCatV1.15B25,2013-05-30 22:13:00,
2013-05-30 18:18:00,77.1,58.6,30.26,WSW,255,1.0,9.0,53,0.00,,,0.00,WeatherCatV1.15B25,2013-05-30 22:18:00,
2013-05-30 18:23:00,76.7,58.8,30.26,SW,232,0.0,4.0,54,0.00,,,0.00,WeatherCatV1.15B25,2013-05-30 22:23:00,
2013-05-30 18:28:00,76.4,59.0,30.26,South,191,0.0,7.0,55,0.00,,,0.00,WeatherCatV1.15B25,2013-05-30 22:28:00,
2013-05-30 18:33:00,76.1,59.2,30.26,West,281,3.0,7.0,56,0.00,,,0.00,WeatherCatV1.15B25,2013-05-30 22:33:00,
2013-05-30 18:38:00,75.8,59.0,30.26,NNW,333,0.0,1.0,56,0.00,,,0.00,WeatherCatV1.15B25,2013-05-30 22:38:00,
2013-05-30 18:43:00,75.7,58.9,30.26,East,98,0.0,8.0,56,0.00,,,0.00,WeatherCatV1.15B25,2013-05-30 22:43:00,
2013-05-30 18:48:00,75.5,58.7,30.26,West,275,4.0,4.0,56,0.00,,,0.00,WeatherCatV1.15B25,2013-05-30 22:48:00,
2013-05-30 18:53:00,75.3,59.0,30.25,West,278,5.0,5.0,57,0.00,,,0.00,WeatherCatV1.15B25,2013-05-30 22:53:00,
2013-05-30 18:58:00,74.8,59.0,30.26,WSW,251,4.0,9.0,58,0.00,,,0.00,WeatherCatV1.15B25,2013-05-30 22:58:00,
2013-05-30 19:03:00,74.6,59.3,30.26,WSW,254,2.0,5.0,59,0.00,,,0.00,WeatherCatV1.15B25,2013-05-30 23:03:00,
2013-05-30 19:08:00,74.4,59.1,30.26,NW,310,4.0,5.0,59,0.00,,,0.00,WeatherCatV1.15B25,2013-05-30 23:08:00,
2013-05-30 19:13:00,74.1,59.3,30.26,West,279,4.0,8.0,60,0.00,,,0.00,WeatherCatV1.15B25,2013-05-30 23:13:00,
2013-05-30 19:18:00,74.0,59.2,30.26,West,281,2.0,11.0,60,0.00,,,0.00,WeatherCatV1.15B25,2013-05-30 23:18:00,
2013-05-30 19:23:00,73.9,59.1,30.26,West,271,3.0,9.0,60,0.00,,,0.00,WeatherCatV1.15B25,2013-05-30 23:23:00,
2013-05-30 19:33:00,73.6,58.8,30.26,NNW,342,1.0,9.0,60,0.00,,,0.00,WeatherCatV1.15B25,2013-05-30 23:33:00,
2013-05-30 19:38:00,73.5,59.2,30.26,West,267,2.0,9.0,61,0.00,,,0.00,WeatherCatV1.15B25,2013-05-30 23:38:00,
2013-05-30 19:43:00,73.3,59.5,30.26,WSW,257,1.0,2.0,62,0.00,,,0.00,WeatherCatV1.15B25,2013-05-30 23:43:00,
2013-05-30 19:48:00,73.2,58.9,30.26,WNW,287,2.0,8.0,61,0.00,,,0.00,WeatherCatV1.15B25,2013-05-30 23:48:00,
2013-05-30 19:53:00,73.0,59.2,30.27,NNW,331,2.0,2.0,62,0.00,,,0.00,WeatherCatV1.15B25,2013-05-30 23:53:00,
2013-05-30 19:58:00,72.9,59.1,30.27,NNE,13,1.0,4.0,62,0.00,,,0.00,WeatherCatV1.15B25,2013-05-30 23:58:00,
2013-05-30 20:03:00,72.8,59.0,30.27,WSW,254,4.0,8.0,62,0.00,,,0.00,WeatherCatV1.15B25,2013-05-31 00:03:00,
2013-05-30 20:08:00,72.6,59.3,30.27,NW,323,3.0,6.0,63,0.00,,,0.00,WeatherCatV1.15B25,2013-05-31 00:08:00,
2013-05-30 20:13:00,72.4,58.6,30.27,SW,232,0.0,7.0,62,0.00,,,0.00,WeatherCatV1.15B25,2013-05-31 00:13:00,
2013-05-30 20:18:00,72.3,59.0,30.27,NNE,19,1.0,5.0,63,0.00,,,0.00,WeatherCatV1.15B25,2013-05-31 00:18:00,
2013-05-30 20:23:00,72.1,58.8,30.27,West,263,3.0,6.0,63,0.00,,,0.00,WeatherCatV1.15B25,2013-05-31 00:23:00,
2013-05-30 20:28:00,72.0,58.7,30.27,WNW,296,2.0,2.0,63,0.00,,,0.00,WeatherCatV1.15B25,2013-05-31 00:28:00,
2013-05-30 20:33:00,71.8,59.0,30.27,West,259,1.0,3.0,64,0.00,,,0.00,WeatherCatV1.15B25,2013-05-31 00:33:00,
2013-05-30 20:38:00,71.7,58.9,30.27,West,261,2.0,3.0,64,0.00,,,0.00,WeatherCatV1.15B25,2013-05-31 00:38:00,
2013-05-30 20:43:00,71.5,59.1,30.27,WNW,296,1.0,2.0,65,0.00,,,0.00,WeatherCatV1.15B25,2013-05-31 00:43:00,
2013-05-30 20:48:00,71.4,59.0,30.27,WSW,258,1.0,3.0,65,0.00,,,0.00,WeatherCatV1.15B25,2013-05-31 00:48:00,
2013-05-30 20:53:00,71.1,58.7,30.27,North,0,2.0,5.0,65,0.00,,,0.00,WeatherCatV1.15B25,2013-05-31 00:53:00,
2013-05-30 21:03:00,70.9,59.0,30.27,NNE,32,0.0,3.0,66,0.00,,,0.00,WeatherCatV1.15B25,2013-05-31 01:03:00,
2013-05-30 21:08:00,70.7,58.8,30.28,West,269,1.0,4.0,66,0.00,,,0.00,WeatherCatV1.15B25,2013-05-31 01:08:00,
2013-05-30 21:13:00,70.6,58.7,30.27,North,355,0.0,3.0,66,0.00,,,0.00,WeatherCatV1.15B25,2013-05-31 01:13:00,
2013-05-30 21:18:00,70.5,59.0,30.28,WNW,299,0.0,5.0,67,0.00,,,0.00,WeatherCatV1.15B25,2013-05-31 01:18:00,
2013-05-30 21:23:00,70.4,58.9,30.28,NW,325,0.0,3.0,67,0.00,,,0.00,WeatherCatV1.15B25,2013-05-31 01:23:00,
2013-05-30 21:28:00,70.3,58.8,30.28,NW,324,0.0,3.0,67,0.00,,,0.00,WeatherCatV1.15B25,2013-05-31 01:28:00,
2013-05-30 21:33:00,70.3,58.8,30.27,WNW,302,0.0,2.0,67,0.00,,,0.00,WeatherCatV1.15B25,2013-05-31 01:33:00,
2013-05-30 21:38:00,70.2,59.1,30.28,West,274,2.0,2.0,68,0.00,,,0.00,WeatherCatV1.15B25,2013-05-31 01:38:00,
2013-05-30 21:48:00,69.9,58.8,30.28,NW,322,0.0,1.0,68,0.00,,,0.00,WeatherCatV1.15B25,2013-05-31 01:48:00,
2013-05-30 21:53:00,69.8,58.7,30.28,NW,310,1.0,2.0,68,0.00,,,0.00,WeatherCatV1.15B25,2013-05-31 01:53:00,
2013-05-30 21:58:00,69.7,59.1,30.28,NNW,333,1.0,2.0,69,0.00,,,0.00,WeatherCatV1.15B25,2013-05-31 01:58:00,
2013-05-30 22:03:00,69.4,58.8,30.28,WSW,251,0.0,6.0,69,0.00,,,0.00,WeatherCatV1.15B25,2013-05-31 02:03:00,
2013-05-30 22:08:00,69.3,58.7,30.28,WSW,252,2.0,2.0,69,0.00,,,0.00,WeatherCatV1.15B25,2013-05-31 02:08:00,
2013-05-30 22:13:00,69.2,59.0,30.28,WSW,250,1.0,5.0,70,0.00,,,0.00,WeatherCatV1.15B25,2013-05-31 02:13:00,
2013-05-30 22:23:00,68.9,58.7,30.28,NE,38,0.0,2.0,70,0.00,,,0.00,WeatherCatV1.15B25,2013-05-31 02:23:00,
2013-05-30 22:28:00,68.8,58.6,30.29,SSW,209,1.0,1.0,70,0.00,,,0.00,WeatherCatV1.15B25,2013-05-31 02:28:00,
2013-05-30 22:33:00,68.8,58.6,30.29,West,259,0.0,0.0,70,0.00,,,0.00,WeatherCatV1.15B25,2013-05-31 02:33:00,
2013-05-30 22:38:00,68.6,58.8,30.29,West,263,0.0,2.0,71,0.00,,,0.00,WeatherCatV1.15B25,2013-05-31 02:38:00,
2013-05-30 22:43:00,68.5,58.7,30.29,WNW,299,0.0,1.0,71,0.00,,,0.00,WeatherCatV1.15B25,2013-05-31 02:43:00,
2013-05-30 22:48:00,68.4,58.6,30.29,West,267,1.0,2.0,71,0.00,,,0.00,WeatherCatV1.15B25,2013-05-31 02:48:00,
2013-05-30 22:53:00,68.4,58.6,30.29,NW,314,0.0,2.0,71,0.00,,,0.00,WeatherCatV1.15B25,2013-05-31 02:53:00,
2013-05-30 22:58:00,68.3,58.1,30.29,NW,305,0.0,1.0,70,0.00,,,0.00,WeatherCatV1.15B25,2013-05-31 02:58:00,
2013-05-30 23:03:00,68.3,58.1,30.29,West,263,1.0,3.0,70,0.00,,,0.00,WeatherCatV1.15B25,2013-05-31 03:03:00,
2013-05-30 23:08:00,68.2,58.0,30.29,WNW,292,1.0,1.0,70,0.00,,,0.00,WeatherCatV1.15B25,2013-05-31 03:08:00,
2013-05-30 23:13:00,68.2,58.0,30.29,WNW,292,0.0,2.0,70,0.00,,,0.00,WeatherCatV1.15B25,2013-05-31 03:13:00,
2013-05-30 23:18:00,68.1,57.9,30.29,WNW,292,1.0,1.0,70,0.00,,,0.00,WeatherCatV1.15B25,2013-05-31 03:18:00,
2013-05-30 23:23:00,68.0,58.2,30.29,NW,306,0.0,1.0,71,0.00,,,0.00,WeatherCatV1.15B25,2013-05-31 03:23:00,
2013-05-30 23:28:00,67.9,58.1,30.29,NW,317,0.0,2.0,71,0.00,,,0.00,WeatherCatV1.15B25,2013-05-31 03:28:00,
2013-05-30 23:33:00,67.9,57.7,30.29,WNW,300,1.0,2.0,70,0.00,,,0.00,WeatherCatV1.15B25,2013-05-31 03:33:00,
2013-05-30 23:38:00,68.0,57.8,30.29,WNW,283,2.0,2.0,70,0.00,,,0.00,WeatherCatV1.15B25,2013-05-31 03:38:00,
2013-05-30 23:43:00,68.0,58.2,30.29,WNW,283,0.0,1.0,71,0.00,,,0.00,WeatherCatV1.15B25,2013-05-31 03:43:00,
2013-05-30 23:48:00,67.9,58.1,30.29,NW,317,1.0,2.0,71,0.00,,,0.00,WeatherCatV1.15B25,2013-05-31 03:48:00,
2013-05-30 23:53:00,67.9,58.1,30.30,NW,317,0.0,0.0,71,0.00,,,0.00,WeatherCatV1.15B25,2013-05-31 03:53:00,
2013-05-30 23:58:00,67.8,58.8,30.30,NW,317,0.0,0.0,73,0.00,,,0.00,WeatherCatV1.15B25,2013-05-31 03:58:00,